Regional Weather Roundup
Issued by NWS

Home | Current Version | Previous Version | Text Only | Print | Product List | Glossary On
Versions: 1 2 3 4 5 6 7 8 9 10 11 12 13 14 15 16 17 18 19 20 21 22 23 24 25 26 27 28 29 30 31 32 33 34 35 36 37 38 39 40 41 42 43 44 45 46 47 48 49 50
000
ASUS45 KBOU 171810
RWRCO

WEATHER ROUNDUP FOR COLORADO
NATIONAL WEATHER SERVICE DENVER/BOULDER CO
1100 AM MST FRI NOV 17 2017

NOTE: "FAIR" INDICATES FEW OR NO CLOUDS BELOW 12000 FEET WITH NO
SIGNIFICANT WEATHER AND/OR OBSTRUCTIONS TO VISIBILITY.

COZ001>005-013-030-031-171900-
...NORTHWEST COLORADO...

CITY           SKY/WX    TMP DP  RH WIND       PRES   REMARKS
CRAIG          LGT RAIN  49  36  61 W32G41    29.73R
HAYDEN         LGT RAIN  49  35  58 SW31G39   29.70F
MEEKER         CLOUDY    56  32  40 SW26G41   29.74F
RABBIT EARS PA CLOUDY    32  28  86 W14G28    29.80F WCI  22
STEAMBOAT SPGS CLOUDY    49  32  52 SW23G38   29.72S
WALDEN         PTSUNNY   50  30  46 SW28G39   29.71F
$$

COZ006>008-011-171900-
...WEST CENTRAL VALLEYS...

CITY           SKY/WX    TMP DP  RH WIND       PRES   REMARKS
GRAND JUNCTION FAIR      64  34  32 SW15G28   29.76F
MONTROSE       FAIR      61  32  33 SW25G37   29.85F
EAGLE          LGT RAIN  50  34  54 SW20G29   29.79F
RIFLE          LGT RAIN  60  35  39 W12       29.75F
DELTA          PTSUNNY   64  32  30 SW25G33   29.82F
NUCLA          FAIR      59  30  33 SW18G37   29.93S
$$

COZ017>023-064>068-171900-
...SOUTHWEST COLORADO...

CITY           SKY/WX    TMP DP  RH WIND       PRES   REMARKS
DURANGO        LGT RAIN  50  34  54 SW9       30.01F
CORTEZ         CLOUDY    57  32  38 SW20G26   29.99F
PAGOSA SPRINGS LGT RAIN  45  32  61 SW5       30.05S
TELLURIDE      CLOUDY    45  30  54 W16G36    30.05R
WOLF CREEK PAS HVY SNOW  27  27 100 SW30G44   30.10F VSB<1/4 WCI  10
$$

COZ009-010-012-014-032>034-037-058>063-171900-
...CENTRAL COLORADO...

CITY           SKY/WX    TMP DP  RH WIND       PRES   REMARKS
ASPEN          LGT RAIN  41  38  89 SW7       29.84F
BUENA VISTA    LGT RAIN  45  37  75 N8        29.83F
COPPER MTN     CLOUDY    34  28  80 MISG      29.93S
BERTHOUD PASS  HVY SNOW  23  14  68 W29G43    29.89S VSB<1/4 WCI   6
COTTONWOOD PAS LGT SNOW  41  37  87 N6        29.88F
GUNNISON       CLOUDY    50  30  46 W23G32    29.87F
KREMMLING      DRIZZLE   50  36  57 SW16G23   29.78F
LEADVILLE      SNOW      33  31  92 NE5       29.86F VSB 1/4 WCI  29
MONARCH PASS     N/A     30  28  93 W49G67    29.96R WCI  12
SALIDA         CLOUDY    47  39  75 SW10      29.92F
SUNLIGHT       CLOUDY    32  28  86 SW22G41   29.90F FOG     WCI  19
WILKERSON PASS CLOUDY    32  30  93 SW13G32   29.93F WCI  22
$$

COZ069>075-171900-
...SAN LUIS VALLEY/SANGRE DE CRISTO MOUNTAINS...

CITY           SKY/WX    TMP DP  RH WIND       PRES   REMARKS
ALAMOSA        FAIR      54  33  45 SW23G37   29.92F
DEL NORTE      CLOUDY    50  30  45 SW26G41   29.93S
LA VETA PASS   CLOUDY    36  30  80 S29G46      N/A
SAGUACHE       NOT AVBL
$$

COZ035-036-038>040-171900-
...NORTHERN COLORADO FRONT RANGE...

CITY           SKY/WX    TMP DP  RH WIND       PRES   REMARKS
DENVER INTL AP PTSUNNY   68  31  25 SW17G26   29.66S
DMNS CITY PARK   N/A     63  31  30 W8G15     29.66F
AURORA         PTSUNNY   65  33  30 SW13G22   29.68F
FRONT RANGE AP MOSUNNY   68  32  26 SW22      29.66F
ERIE MUNI ARPT FAIR      64  31  29 SW21G32   29.71S
BOULDER MUN AP FAIR      59  32  36 SW12G23   29.66F
CENTENNIAL     PTSUNNY   62  33  33 W12       29.69F
BROOMFIELD     PTSUNNY   59  32  36 W12G22    29.70R
FORT COLLINS   FAIR      64  34  32 SW22G32   29.60F
LONGMONT       FAIR      64  33  32 SW17      29.65F
$$

COZ041-046-047-076>085-087-088-171900-
...PIKES PEAK/PALMER DIVIDE AND SOUTHERN FOOTHILLS...

CITY           SKY/WX    TMP DP  RH WIND       PRES   REMARKS
COLO. SPRINGS  FAIR      64  33  31 SW20G32   29.75F
A. F. ACADEMY  FAIR      62  28  28 SW22G33   29.73F
SCHRIEVER AFB  FAIR      62  31  31 SW25G35   29.76F
CHEYENNE MTN   FAIR      57  32  38 SE23G36   29.71F
ELLICOTT         N/A    N/A N/A N/A W35G45    29.73F
FALCON         FAIR      62  27  26 SW25G33   29.77F
FORT CARSON    FAIR      62  34  35 SW25G33   29.74F
LIMON          FAIR      69  29  22 W22G30    29.65F
MONUMENT HILL  FAIR      57  32  38 SW25G31   29.75F
CANON CITY     FAIR      63  37  39 W24G32    29.75F
WALSENBURG     FAIR      64  34  32 SW33G47   29.81F
TRINIDAD       FAIR      68  32  26 W41G54    29.76F
$$

COZ042>045-048>051-090-091-171900-
...NORTHEAST COLORADO...

CITY           SKY/WX    TMP DP  RH WIND       PRES   REMARKS
GREELEY ARPT   FAIR      67  35  30 W16G24    29.61F
AKRON          FAIR      57  29  34 N15       29.64F
BURLINGTON     FAIR      74  33  22 W15G25    29.63F
WRAY           NOT AVBL
YUMA           FAIR      55  30  38 N20G25    29.62F
STERLING       FAIR      50  32  50 NE9       29.64F
HOLYOKE        FAIR      54  32  43 N16G23    29.65F
FORT MORGAN    FAIR      62  31  31 NE12      29.64F
$$

COZ086-089-092>099-171900-
...SOUTHEAST COLORADO...

CITY           SKY/WX    TMP DP  RH WIND       PRES   REMARKS
PUEBLO         FAIR      71  34  25 W15       29.71F
LA JUNTA       FAIR      75  32  20 W33G40    29.66F
LAMAR          FAIR      77  33  20 W26G32    29.63F
SPRINGFIELD      N/A     72  34  24 W20G30    29.72F
$$



USA.gov is the U.S. government's official web portal to all federal, state and local government web resources and services.